Weather History for Little Rock, AR

Change the Weather History Date:

Wednesday, January 30, 2013

  Actual Average Record
Temperature  
Mean Temperature 46 °F 42 °F  
Max Temperature 57 °F 52 °F 80 °F (2002)
Min Temperature 34 °F 32 °F 2 °F (1966)
Degree Days  
Heating Degree Days 19 23  
Month to date heating degree days 637 719  
Since 1 July heating degree days 1708 1916  
Cooling Degree Days 0 0  
Month to date cooling degree days 5 0  
Year to date cooling degree days 5 0  
Moisture  
Dew Point 36 °F    
Average Humidity 73    
Maximum Humidity 100    
Minimum Humidity 45    
Precipitation  
Precipitation 0.03 in 0.11 in 2.91 in (1969)
Month to date precipitation 4.81 3.43  
Year to date precipitation 4.81 3.43  
Snow  
Snow 0.00 in 0.00 in 9.70 in (1882)
Month to date snowfall 0.3 1.5  
Since 1 July snowfall 10.6 1.7  
Snow Depth 0.00 in    
Sea Level Pressure  
Sea Level Pressure 29.78 in    
Wind  
Wind Speed 14 mph (West)    
Max Wind Speed 29 mph    
Max Gust Speed 40 mph    
Visibility 10 miles    
Events Rain    
T = Trace of Precipitation, MM = Missing Value Source: NWS Daily Summary

Daily Weather History Graph

Daily Weather History Graph

Search for Another Location

Airport:

Trip Planner

Search our weather history database for the weather conditions in past years. The results will help you decide how hot, cold, wet, or windy it might be!

Date:

Astronomy

Jan. 30, 2013 Rise Set
Actual Time 7:08 AM CST 5:36 PM CST
Civil Twilight 6:41 AM CST 6:03 PM CST
Nautical Twilight 6:11 AM CST 6:33 PM CST
Astronomical Twilight 5:41 AM CST 7:03 PM CST
Moon 9:23 PM CST (1/30) 8:47 AM CST (1/30)
Length of Visible Light 11h 21m
Length of Day
10h 28m
Waning Gibbous, 87% of the Moon is Illuminated
Jan 30
Waning Gibbous
Feb 3
Last Quarter
Feb 10
New
Feb 17
First Quarter
Feb 25
Full

Hourly Weather History & Observations

Time (CST) Temp. Windchill Dew Point Humidity Pressure Visibility Wind Dir Wind Speed Gust Speed Precip Events Conditions
12:34 AM 55.4 °F - 51.8 °F 88% 29.59 in 7.0 mi West 6.9 mph 16.1 mph 0.03 in Rain Light Rain
12:53 AM 55.9 °F - 51.1 °F 84% 29.57 in 7.0 mi WNW 3.5 mph - 0.03 in Rain Light Rain
1:53 AM 54.0 °F - 53.1 °F 97% 29.58 in 10.0 mi South 5.8 mph - 0.00 in Rain Light Rain
2:53 AM 53.1 °F - 52.0 °F 96% 29.59 in 10.0 mi South 3.5 mph - 0.00 in   Mostly Cloudy
3:53 AM 52.0 °F - 51.1 °F 97% 29.59 in 10.0 mi South 9.2 mph - N/A   Mostly Cloudy
4:53 AM 53.1 °F - 50.0 °F 89% 29.57 in 10.0 mi SSW 9.2 mph - N/A   Overcast
5:53 AM 52.0 °F - 48.0 °F 86% 29.57 in 10.0 mi SW 11.5 mph - N/A   Mostly Cloudy
6:53 AM 51.1 °F - 46.9 °F 86% 29.60 in 10.0 mi WSW 9.2 mph - N/A   Mostly Cloudy
7:53 AM 50.0 °F - 44.1 °F 80% 29.63 in 10.0 mi West 10.4 mph - N/A   Mostly Cloudy
8:17 AM 50.0 °F - 41.0 °F 71% 29.64 in 10.0 mi West 19.6 mph 27.6 mph N/A   Overcast
8:53 AM 48.9 °F - 39.0 °F 69% 29.65 in 10.0 mi WNW 18.4 mph - N/A   Mostly Cloudy
9:53 AM 46.9 °F - 37.0 °F 68% 29.68 in 10.0 mi WNW 19.6 mph 26.5 mph N/A   Mostly Cloudy
10:53 AM 45.0 °F 36.6 °F 33.1 °F 63% 29.72 in 10.0 mi West 21.9 mph 31.1 mph N/A   Overcast
11:16 AM 46.4 °F 38.3 °F 30.2 °F 53% 29.73 in 10.0 mi West 23.0 mph 35.7 mph N/A   Mostly Cloudy
11:53 AM 46.0 °F 37.2 °F 28.9 °F 51% 29.76 in 10.0 mi West 26.5 mph 40.3 mph N/A   Mostly Cloudy
12:53 PM 45.0 °F 37.4 °F 28.9 °F 53% 29.78 in 10.0 mi West 18.4 mph 32.2 mph N/A   Overcast
1:53 PM 46.0 °F 37.8 °F 28.0 °F 50% 29.81 in 10.0 mi WNW 23.0 mph 36.8 mph N/A   Overcast
2:53 PM 45.0 °F 36.9 °F 26.1 °F 48% 29.85 in 10.0 mi WNW 20.7 mph 33.4 mph N/A   Overcast
3:53 PM 44.1 °F 35.9 °F 25.0 °F 47% 29.89 in 10.0 mi WNW 19.6 mph 28.8 mph N/A   Mostly Cloudy
4:53 PM 43.0 °F 34.2 °F 24.1 °F 47% 29.93 in 10.0 mi WNW 20.7 mph 35.7 mph N/A   Mostly Cloudy
5:53 PM 41.0 °F 33.1 °F 24.1 °F 51% 29.97 in 10.0 mi WNW 15.0 mph 21.9 mph N/A   Scattered Clouds
6:53 PM 41.0 °F 33.9 °F 25.0 °F 53% 30.01 in 10.0 mi West 12.7 mph 18.4 mph N/A   Clear
7:53 PM 39.9 °F 33.4 °F 26.1 °F 58% 30.04 in 10.0 mi WNW 10.4 mph - N/A   Clear
8:53 PM 37.9 °F 32.7 °F 26.1 °F 62% 30.07 in 10.0 mi West 6.9 mph - N/A   Clear
9:53 PM 37.9 °F 30.0 °F 26.1 °F 62% 30.09 in 10.0 mi WNW 12.7 mph - N/A   Clear
10:53 PM 37.0 °F 29.8 °F 27.0 °F 67% 30.10 in 10.0 mi WNW 10.4 mph - N/A   Clear
11:53 PM 35.1 °F 30.1 °F 26.1 °F 70% 30.10 in 10.0 mi WNW 5.8 mph - N/A   Clear